,,Stat6,,Stat2,,Stat8,,Stat9,,Stat10,,Wind1,,Wind1,
time,status,PA1M_AVG,status,PR1M_SUM,status,RH1M_AVG,status,SR1M_AVG,status,TA1M_AVG,status,W1dAve1m,status,W1sAve1m,
2005-05-27, 00:00:00,VALID,917.799,VALID,0,VALID,100,VALID,0.0509425,VALID,19.6784,VALID,91,VALID,0.652593,
2005-05-27, 00:01:00,VALID,917.79,VALID,0,VALID,100,VALID,0.0509425,VALID,19.6488,VALID,91,VALID,0.686523,
2005-05-27, 00:02:00,VALID,917.771,VALID,0,VALID,100,VALID,0,VALID,19.6267,VALID,90,VALID,0.669922,
2005-05-27, 00:03:01,VALID,917.756,VALID,0,VALID,100,VALID,0,VALID,19.5361,VALID,77,VALID,0.854226,
2005-05-27, 00:04:00,VALID,917.752,VALID,0,VALID,100,VALID,0,VALID,19.543,VALID,87,VALID,0.702381,
2005-05-27, 00:05:01,VALID,917.735,VALID,0,VALID,100,VALID,0.0339617,VALID,19.5462,VALID,91,VALID,0.622514,
2005-05-27, 00:06:00,VALID,917.71,VALID,0,VALID,100,VALID,0.0339617,VALID,19.5299,VALID,102,VALID,0.827172,
2005-05-27, 00:07:00,VALID,917.696,VALID,0,VALID,100,VALID,-0.0679233,VALID,19.5048,VALID,109,VALID,0.826705,
2005-05-27, 00:08:01,VALID,917.687,VALID,0,VALID,100,VALID,-0.0849042,VALID,19.4928,VALID,110,VALID,0.847461,
2005-05-27, 00:09:00,VALID,917.675,VALID,0,VALID,100,VALID,-0.0509425,VALID,19.4958,VALID,112,VALID,0.831936,
2005-05-27, 00:10:00,VALID,917.659,VALID,0,VALID,100,VALID,-0.0679233,VALID,19.4926,VALID,120,VALID,0.851744,
2005-05-27, 00:11:00,VALID,917.665,VALID,0,VALID,100,VALID,-0.0849042,VALID,19.4893,VALID,128,VALID,0.793445,
2005-05-27, 00:12:01,VALID,917.647,VALID,0,VALID,100,VALID,-0.0679233,VALID,19.4732,VALID,127,VALID,0.881324,
2005-05-27, 00:13:00,VALID,917.637,VALID,0,VALID,100,VALID,-0.0679233,VALID,19.5316,VALID,121,VALID,0.949023,
2005-05-27, 00:14:00,VALID,917.632,VALID,0,VALID,100,VALID,-0.0679233,VALID,19.5477,VALID,132,VALID,0.764898,
2005-05-27, 00:15:01,VALID,917.606,VALID,0,VALID,100,VALID,-0.0849042,VALID,19.5249,VALID,122,VALID,0.849077,
2005-05-27, 00:16:00,VALID,917.574,VALID,0,VALID,100,VALID,-0.0679233,VALID,19.5251,VALID,122,VALID,0.713068,
2005-05-27, 00:17:00,VALID,917.546,VALID,0,VALID,100,VALID,-0.0849042,VALID,19.5152,VALID,118,VALID,0.454397,
2005-05-27, 00:18:01,VALID,917.521,VALID,0,VALID,100,VALID,-0.0849042,VALID,19.4898,VALID,116,VALID,0.442042,
2005-05-27, 00:19:00,VALID,917.513,VALID,0,VALID,100,VALID,-0.0849042,VALID,19.4734,VALID,78,VALID,0.795387,
2005-05-27, 00:20:00,VALID,917.476,VALID,0,VALID,100,VALID,-0.0849042,VALID,19.4312,VALID,69,VALID,0.851926,
2005-05-27, 00:21:01,VALID,917.478,VALID,0,VALID,100,VALID,-0.101885,VALID,19.419,VALID,70,VALID,0.535056,
2005-05-27, 00:22:00,VALID,917.469,VALID,0,VALID,100,VALID,0,VALID,19.3813,VALID,70,VALID,0.68006,
2005-05-27, 00:23:01,VALID,917.465,VALID,0,VALID,100,VALID,0.0169808,VALID,19.362,VALID,70,VALID,0.631392,
2005-05-27, 00:24:00,VALID,917.455,VALID,0,VALID,100,VALID,0.0509425,VALID,19.3495,VALID,70,VALID,0.541159,
2005-05-27, 00:25:00,VALID,917.448,VALID,0,VALID,100,VALID,0.0339617,VALID,19.3133,VALID,70,VALID,0.450707,
2005-05-27, 00:26:00,VALID,917.43,VALID,0,VALID,100,VALID,0.0509425,VALID,19.3262,VALID,70,VALID,0.390811,
2005-05-27, 00:27:00,VALID,917.41,VALID,0,VALID,100,VALID,0.0679233,VALID,19.3138,VALID,70,VALID,0.292597,
2005-05-27, 00:28:01,VALID,917.401,VALID,0,VALID,100,VALID,0,VALID,19.3336,VALID,70,VALID,0.350962,
2005-05-27, 00:29:00,VALID,917.376,VALID,0,VALID,100,VALID,0.0509425,VALID,19.3786,VALID,70,VALID,0.372904,
2005-05-27, 00:30:00,VALID,917.351,VALID,0,VALID,100,VALID,0.0339617,VALID,19.4104,VALID,70,VALID,0.23473,
2005-05-27, 00:31:00,VALID,917.32,VALID,0,VALID,100,VALID,0,VALID,19.4079,VALID,70,VALID,0.0158203,
2005-05-27, 00:32:00,VALID,917.302,VALID,0,VALID,100,VALID,-0.0849042,VALID,19.3344,VALID,70,VALID,0.0476562,
2005-05-27, 00:33:01,VALID,917.289,VALID,0,VALID,100,VALID,-0.0849042,VALID,19.1863,VALID,70,VALID,0.0516387,
2005-05-27, 00:34:01,VALID,917.265,VALID,0,VALID,100,VALID,-0.0849042,VALID,19.0765,VALID,70,VALID,0,
2005-05-27, 00:35:01,VALID,917.259,VALID,0,VALID,100,VALID,-0.0849042,VALID,19.0281,VALID,70,VALID,0,
2005-05-27, 00:36:00,VALID,917.248,VALID,0,VALID,100,VALID,-0.101885,VALID,19.0117,VALID,70,VALID,0,
2005-05-27, 00:37:00,VALID,917.234,VALID,0,VALID,100,VALID,0,VALID,19.0239,VALID,70,VALID,0,
2005-05-27, 00:38:00,VALID,917.219,VALID,0,VALID,100,VALID,0.0169808,VALID,19.0299,VALID,70,VALID,0,
2005-05-27, 00:39:00,VALID,917.193,VALID,0,VALID,100,VALID,0,VALID,19.088,VALID,70,VALID,0,
2005-05-27, 00:40:01,VALID,917.188,VALID,0,VALID,100,VALID,0.0169808,VALID,19.1856,VALID,70,VALID,0,
2005-05-27, 00:41:01,VALID,917.181,VALID,0,VALID,100,VALID,0.0169808,VALID,19.275,VALID,70,VALID,0.104048,
2005-05-27, 00:42:01,VALID,917.142,VALID,0,VALID,100,VALID,0.0509425,VALID,19.3759,VALID,70,VALID,0.265625,
2005-05-27, 00:43:01,VALID,917.13,VALID,0,VALID,100,VALID,0,VALID,19.4176,VALID,70,VALID,0.321429,
2005-05-27, 00:44:01,VALID,917.123,VALID,0,VALID,100,VALID,0.0509425,VALID,19.4106,VALID,70,VALID,0.335211,
2005-05-27, 00:45:01,VALID,917.098,VALID,0,VALID,100,VALID,0.0509425,VALID,19.3654,VALID,70,VALID,0.387109,
2005-05-27, 00:46:01,VALID,917.098,VALID,0,VALID,100,VALID,0.0679233,VALID,19.2651,VALID,70,VALID,0.609189,
2005-05-27, 00:47:01,VALID,917.094,VALID,0,VALID,100,VALID,0.0169808,VALID,19.3339,VALID,70,VALID,0.827009,
2005-05-27, 00:48:01,VALID,917.104,VALID,0,VALID,100,VALID,0.0339617,VALID,19.4141,VALID,72,VALID,0.855078,
2005-05-27, 00:49:01,VALID,917.096,VALID,0,VALID,100,VALID,0,VALID,19.4978,VALID,77,VALID,0.792597,
2005-05-27, 00:50:01,VALID,917.09,VALID,0,VALID,100,VALID,0.0339617,VALID,19.5465,VALID,77,VALID,0.866787,
2005-05-27, 00:51:01,VALID,917.079,VALID,0,VALID,100,VALID,0.0169808,VALID,19.576,VALID,77,VALID,0.860647,
2005-05-27, 00:52:00,VALID,917.073,VALID,0,VALID,100,VALID,0,VALID,19.5373,VALID,77,VALID,0.865282,
2005-05-27, 00:53:01,VALID,917.055,VALID,0,VALID,100,VALID,0,VALID,19.502,VALID,76,VALID,0.810023,
2005-05-27, 00:54:01,VALID,917.06,VALID,0,VALID,100,VALID,0,VALID,19.4238,VALID,73,VALID,0.906084,
2005-05-27, 00:55:01,VALID,917.05,VALID,0,VALID,100,VALID,0,VALID,19.3433,VALID,65,VALID,0.935683,
2005-05-27, 00:56:01,VALID,917.065,VALID,0,VALID,100,VALID,0,VALID,19.2755,VALID,62,VALID,0.822731,
2005-05-27, 00:57:00,VALID,917.072,VALID,0,VALID,100,VALID,-0.0169808,VALID,19.2241,VALID,62,VALID,0.663553,
2005-05-27, 00:58:01,VALID,917.071,VALID,0,VALID,100,VALID,0,VALID,19.1851,VALID,66,VALID,0.675409,
2005-05-27, 00:59:01,VALID,917.079,VALID,0,VALID,100,VALID,0,VALID,19.166,VALID,79,VALID,0.762074,
2005-05-27, 01:00:00,VALID,917.067,VALID,0,VALID,100,VALID,0.0169808,VALID,19.1141,VALID,81,VALID,0.522017,
2005-05-27, 01:01:01,VALID,917.066,VALID,0,VALID,100,VALID,0.0169808,VALID,19.0756,VALID,82,VALID,0.578497,
2005-05-27, 01:02:01,VALID,917.055,VALID,0,VALID,100,VALID,0,VALID,19.0624,VALID,83,VALID,0.731027,
2005-05-27, 01:03:01,VALID,917.063,VALID,0,VALID,100,VALID,0,VALID,19.0726,VALID,85,VALID,0.561592,
2005-05-27, 01:04:01,VALID,917.06,VALID,0,VALID,100,VALID,0,VALID,19.0532,VALID,87,VALID,0.624023,
2005-05-27, 01:05:01,VALID,917.066,VALID,0,VALID,100,VALID,-0.0169808,VALID,19.0594,VALID,102,VALID,0.616235,
2005-05-27, 01:06:01,VALID,917.071,VALID,0,VALID,100,VALID,0,VALID,19.0562,VALID,126,VALID,0.775112,
2005-05-27, 01:07:01,VALID,917.063,VALID,0,VALID,100,VALID,0,VALID,19.0659,VALID,134,VALID,0.887541,
2005-05-27, 01:08:01,VALID,917.056,VALID,0,VALID,100,VALID,0.0169808,VALID,19.1051,VALID,132,VALID,0.950977,
2005-05-27, 01:09:01,VALID,917.05,VALID,0,VALID,100,VALID,0.0169808,VALID,19.1531,VALID,127,VALID,0.969161,
2005-05-27, 01:10:01,VALID,917.044,VALID,0,VALID,100,VALID,0,VALID,19.2082,VALID,129,VALID,0.852734,
2005-05-27, 01:11:01,VALID,917.03,VALID,0,VALID,100,VALID,0.0169808,VALID,19.2214,VALID,119,VALID,0.682413,
2005-05-27, 01:12:01,VALID,917.035,VALID,0,VALID,100,VALID,0,VALID,19.2075,VALID,119,VALID,0.711632,
2005-05-27, 01:13:01,VALID,917.026,VALID,0,VALID,100,VALID,0,VALID,19.2437,VALID,123,VALID,0.853924,
2005-05-27, 01:14:01,VALID,917.017,VALID,0,VALID,100,VALID,0.0169808,VALID,19.2596,VALID,126,VALID,0.462153,
2005-05-27, 01:15:01,VALID,917.026,VALID,0,VALID,100,VALID,0,VALID,19.2497,VALID,125,VALID,0.505952,
2005-05-27, 01:16:01,VALID,917.023,VALID,0,VALID,100,VALID,0.0339617,VALID,19.2532,VALID,125,VALID,0.485491,
2005-05-27, 01:17:01,VALID,917.042,VALID,0,VALID,100,VALID,0,VALID,19.276,VALID,124,VALID,0.61582,
2005-05-27, 01:18:01,VALID,917.052,VALID,0,VALID,100,VALID,0,VALID,19.2924,VALID,124,VALID,0.653161,
2005-05-27, 01:19:01,VALID,917.072,VALID,0,VALID,100,VALID,0,VALID,19.2984,VALID,115,VALID,0.875727,
2005-05-27, 01:20:01,VALID,917.094,VALID,0,VALID,100,VALID,0,VALID,19.3217,VALID,117,VALID,0.755504,
2005-05-27, 01:21:01,VALID,917.086,VALID,0,VALID,100,VALID,0,VALID,19.3115,VALID,117,VALID,0.659505,
2005-05-27, 01:22:01,VALID,917.092,VALID,0,VALID,100,VALID,0,VALID,19.3147,VALID,115,VALID,0.761533,
2005-05-27, 01:23:00,VALID,917.097,VALID,0,VALID,100,VALID,0,VALID,19.3239,VALID,114,VALID,0.49349,
2005-05-27, 01:24:00,VALID,917.081,VALID,0,VALID,100,VALID,-0.0169808,VALID,19.3503,VALID,110,VALID,0.564844,
2005-05-27, 01:25:00,VALID,917.057,VALID,0,VALID,100,VALID,0,VALID,19.3336,VALID,101,VALID,0.586682,
2005-05-27, 01:26:00,VALID,917.033,VALID,0,VALID,100,VALID,0.0169808,VALID,19.3567,VALID,90,VALID,0.787574,
2005-05-27, 01:27:00,VALID,917.001,VALID,0,VALID,100,VALID,0,VALID,19.347,VALID,81,VALID,0.62391,
2005-05-27, 01:28:00,VALID,916.973,VALID,0,VALID,100,VALID,0.0339617,VALID,19.3431,VALID,96,VALID,0.724019,
2005-05-27, 01:29:00,VALID,916.934,VALID,0,VALID,100,VALID,0.0679233,VALID,19.3433,VALID,89,VALID,0.672656,
2005-05-27, 01:30:00,VALID,916.906,VALID,0,VALID,100,VALID,0.0339617,VALID,19.3436,VALID,72,VALID,0.779948,
2005-05-27, 01:31:00,VALID,916.891,VALID,0,VALID,100,VALID,0.0339617,VALID,19.3369,VALID,71,VALID,0.679332,
2005-05-27, 01:32:00,VALID,916.885,VALID,0,VALID,100,VALID,0,VALID,19.3433,VALID,71,VALID,0.741806,
2005-05-27, 01:33:00,VALID,916.876,VALID,0,VALID,100,VALID,0,VALID,19.353,VALID,72,VALID,0.748476,
2005-05-27, 01:34:00,VALID,916.872,VALID,0,VALID,100,VALID,0,VALID,19.3657,VALID,76,VALID,0.639063,
2005-05-27, 01:35:00,VALID,916.878,VALID,0,VALID,100,VALID,0.0339617,VALID,19.3592,VALID,76,VALID,0.710227,
2005-05-27, 01:36:00,VALID,916.88,VALID,0,VALID,100,VALID,0,VALID,19.3724,VALID,76,VALID,0.732701,
2005-05-27, 01:37:00,VALID,916.87,VALID,0,VALID,100,VALID,0.0339617,VALID,19.3719,VALID,75,VALID,0.876953,
2005-05-27, 01:38:00,VALID,916.866,VALID,0,VALID,100,VALID,0.0339617,VALID,19.3791,VALID,74,VALID,1.00191,
2005-05-27, 01:39:00,VALID,916.85,VALID,0,VALID,100,VALID,0,VALID,19.3659,VALID,73,VALID,1.00266,
2005-05-27, 01:40:00,VALID,916.835,VALID,0,VALID,100,VALID,0.0169808,VALID,19.3659,VALID,73,VALID,1.00994,
2005-05-27, 01:41:00,VALID,916.826,VALID,0,VALID,100,VALID,0,VALID,19.3724,VALID,80,VALID,1.11991,
2005-05-27, 01:42:00,VALID,916.812,VALID,0,VALID,100,VALID,0.0679233,VALID,19.3788,VALID,85,VALID,0.959032,
2005-05-27, 01:43:00,VALID,916.788,VALID,0,VALID,100,VALID,0.0509425,VALID,19.3853,VALID,92,VALID,1.09989,
2005-05-27, 01:44:00,VALID,916.757,VALID,0,VALID,100,VALID,0.0339617,VALID,19.3915,VALID,89,VALID,0.767663,
2005-05-27, 01:45:00,VALID,916.736,VALID,0,VALID,100,VALID,0.0339617,VALID,19.3883,VALID,101,VALID,0.734189,
2005-05-27, 01:46:00,VALID,916.713,VALID,0,VALID,100,VALID,0.0169808,VALID,19.3885,VALID,89,VALID,0.589939,
2005-05-27, 01:47:00,VALID,916.709,VALID,0,VALID,100,VALID,0,VALID,19.3922,VALID,87,VALID,0.628701,
2005-05-27, 01:48:00,VALID,916.705,VALID,0,VALID,100,VALID,0.0169808,VALID,19.3786,VALID,77,VALID,0.816311,
2005-05-27, 01:49:00,VALID,916.707,VALID,0,VALID,100,VALID,0,VALID,19.3754,VALID,59,VALID,0.716518,
2005-05-27, 01:50:00,VALID,916.701,VALID,0,VALID,100,VALID,0.0169808,VALID,19.3689,VALID,55,VALID,0.745898,
2005-05-27, 01:51:00,VALID,916.716,VALID,0,VALID,100,VALID,0.0169808,VALID,19.3657,VALID,64,VALID,0.61814,
2005-05-27, 01:52:00,VALID,916.714,VALID,0,VALID,100,VALID,0.0509425,VALID,19.3525,VALID,91,VALID,0.778054,
2005-05-27, 01:53:00,VALID,916.697,VALID,0,VALID,100,VALID,0,VALID,19.3528,VALID,104,VALID,0.742746,
2005-05-27, 01:54:00,VALID,916.679,VALID,0,VALID,100,VALID,0,VALID,19.3624,VALID,104,VALID,0.460756,
2005-05-27, 01:55:00,VALID,916.682,VALID,0,VALID,100,VALID,0.0169808,VALID,19.3915,VALID,97,VALID,0.919531,
2005-05-27, 01:56:00,VALID,916.661,VALID,0,VALID,100,VALID,0,VALID,19.3947,VALID,66,VALID,0.762695,
2005-05-27, 01:57:00,VALID,916.673,VALID,0,VALID,100,VALID,0,VALID,19.3982,VALID,36,VALID,0.97154,
2005-05-27, 01:58:00,VALID,916.651,VALID,0,VALID,100,VALID,0.0169808,VALID,19.3818,VALID,48,VALID,0.94375,
2005-05-27, 01:59:00,VALID,916.654,VALID,0,VALID,100,VALID,0.0169808,VALID,19.3587,VALID,61,VALID,0.723958,
2005-05-27, 02:00:00,VALID,916.663,VALID,0,VALID,100,VALID,0,VALID,19.3627,VALID,63,VALID,0.668968,
2005-05-27, 02:01:00,VALID,916.675,VALID,0,VALID,100,VALID,0.0169808,VALID,19.3662,VALID,63,VALID,0.651163,
2005-05-27, 02:02:00,VALID,916.678,VALID,0,VALID,100,VALID,0.0169808,VALID,19.3495,VALID,71,VALID,0.652253,
2005-05-27, 02:03:00,VALID,916.671,VALID,0,VALID,100,VALID,0.0509425,VALID,19.3329,VALID,82,VALID,0.538154,
2005-05-27, 02:04:00,VALID,916.679,VALID,0,VALID,100,VALID,0.0339617,VALID,19.3498,VALID,86,VALID,0.577363,
2005-05-27, 02:05:00,VALID,916.661,VALID,0,VALID,100,VALID,0,VALID,19.3592,VALID,87,VALID,0.55878,
2005-05-27, 02:06:00,VALID,916.637,VALID,0,VALID,100,VALID,0.0169808,VALID,19.359,VALID,66,VALID,0.659745,
2005-05-27, 02:07:00,VALID,916.627,VALID,0,VALID,100,VALID,0.0169808,VALID,19.3724,VALID,28,VALID,0.6625,
2005-05-27, 02:08:00,VALID,916.611,VALID,0,VALID,100,VALID,0.0169808,VALID,19.3751,VALID,28,VALID,0.636619,
2005-05-27, 02:09:00,VALID,916.601,VALID,0,VALID,100,VALID,0,VALID,19.3788,VALID,28,VALID,0.361806,
2005-05-27, 02:10:00,VALID,916.585,VALID,0,VALID,100,VALID,0.0169808,VALID,19.3754,VALID,28,VALID,0.0554142,
2005-05-27, 02:11:00,VALID,916.574,VALID,0,VALID,100,VALID,0.0169808,VALID,19.3786,VALID,28,VALID,0,
2005-05-27, 02:12:00,VALID,916.569,VALID,0,VALID,100,VALID,0,VALID,19.3624,VALID,28,VALID,0,
2005-05-27, 02:13:00,VALID,916.569,VALID,0,VALID,100,VALID,0.0339617,VALID,19.3664,VALID,28,VALID,0,
2005-05-27, 02:14:00,VALID,916.58,VALID,0,VALID,100,VALID,0,VALID,19.3394,VALID,28,VALID,0,
2005-05-27, 02:15:00,VALID,916.569,VALID,0,VALID,100,VALID,0.0339617,VALID,19.3394,VALID,28,VALID,0.0203488,
2005-05-27, 02:16:00,VALID,916.581,VALID,0,VALID,100,VALID,0.0169808,VALID,19.3299,VALID,28,VALID,0.015067,
2005-05-27, 02:17:00,VALID,916.571,VALID,0,VALID,100,VALID,0,VALID,19.3428,VALID,28,VALID,0,
2005-05-27, 02:18:00,VALID,916.558,VALID,0,VALID,100,VALID,0.0169808,VALID,19.3599,VALID,28,VALID,0,
2005-05-27, 02:19:00,VALID,916.566,VALID,0,VALID,100,VALID,0.0169808,VALID,19.3597,VALID,28,VALID,0,
2005-05-27, 02:20:00,VALID,916.53,VALID,0,VALID,100,VALID,0.0169808,VALID,19.3684,VALID,28,VALID,0,
2005-05-27, 02:21:00,VALID,916.527,VALID,0,VALID,100,VALID,0,VALID,19.3689,VALID,28,VALID,0,
2005-05-27, 02:22:00,VALID,916.513,VALID,0,VALID,100,VALID,-0.0849042,VALID,19.3706,VALID,28,VALID,0.115767,
2005-05-27, 02:23:00,VALID,916.491,VALID,0,VALID,100,VALID,-0.101885,VALID,19.3413,VALID,28,VALID,0.467035,
2005-05-27, 02:24:00,VALID,916.465,VALID,0,VALID,100,VALID,-0.101885,VALID,19.2959,VALID,28,VALID,0.525112,
2005-05-27, 02:25:00,VALID,916.461,VALID,0,VALID,100,VALID,-0.101885,VALID,19.277,VALID,28,VALID,0.468149,
2005-05-27, 02:26:00,VALID,916.452,VALID,0,VALID,100,VALID,-0.0849042,VALID,19.2474,VALID,28,VALID,0.473514,
2005-05-27, 02:27:00,VALID,916.445,VALID,0,VALID,100,VALID,-0.0509425,VALID,19.232,VALID,28,VALID,0.406441,
2005-05-27, 02:28:00,VALID,916.451,VALID,0,VALID,100,VALID,-0.101885,VALID,19.232,VALID,28,VALID,0.37779,
2005-05-27, 02:29:00,VALID,916.442,VALID,0,VALID,100,VALID,-0.101885,VALID,19.2281,VALID,28,VALID,0.466654,
2005-05-27, 02:30:00,VALID,916.445,VALID,0,VALID,100,VALID,-0.101885,VALID,19.2348,VALID,28,VALID,0.501736,
2005-05-27, 02:31:00,VALID,916.423,VALID,0,VALID,100,VALID,-0.0509425,VALID,19.2114,VALID,28,VALID,0.496189,
2005-05-27, 02:32:00,VALID,916.404,VALID,0,VALID,100,VALID,-0.0849042,VALID,19.2025,VALID,28,VALID,0.46657,
2005-05-27, 02:33:00,VALID,916.398,VALID,0,VALID,100,VALID,-0.101885,VALID,19.2223,VALID,28,VALID,0.553571,
2005-05-27, 02:34:00,VALID,916.386,VALID,0,VALID,100,VALID,-0.101885,VALID,19.235,VALID,28,VALID,0.654688,
2005-05-27, 02:35:00,VALID,916.393,VALID,0,VALID,100,VALID,-0.118866,VALID,19.2149,VALID,28,VALID,0.660689,
2005-05-27, 02:36:00,VALID,916.413,VALID,0,VALID,100,VALID,-0.101885,VALID,19.2151,VALID,28,VALID,0.434593,
2005-05-27, 02:37:00,VALID,916.447,VALID,0,VALID,100,VALID,-0.0169808,VALID,19.2013,VALID,28,VALID,0.167783,
2005-05-27, 02:38:00,VALID,916.456,VALID,0,VALID,100,VALID,0,VALID,19.1913,VALID,28,VALID,0.262463,
2005-05-27, 02:39:00,VALID,916.478,VALID,0,VALID,100,VALID,0,VALID,19.1657,VALID,41,VALID,0.523624,
2005-05-27, 02:40:00,VALID,916.5,VALID,0,VALID,100,VALID,0.0339617,VALID,19.1687,VALID,83,VALID,0.622093,
2005-05-27, 02:41:00,VALID,916.515,VALID,0,VALID,100,VALID,0.0169808,VALID,19.1459,VALID,111,VALID,0.872954,
2005-05-27, 02:42:00,VALID,916.515,VALID,0,VALID,100,VALID,0.0339617,VALID,19.1307,VALID,113,VALID,0.767805,
2005-05-27, 02:43:00,VALID,916.535,VALID,0,VALID,100,VALID,-0.0169808,VALID,19.0878,VALID,118,VALID,0.629972,
2005-05-27, 02:44:00,VALID,916.532,VALID,0,VALID,100,VALID,-0.0169808,VALID,19.0753,VALID,120,VALID,0.461133,
2005-05-27, 02:45:00,VALID,916.534,VALID,0,VALID,100,VALID,0,VALID,19.056,VALID,119,VALID,0.471726,
2005-05-27, 02:46:00,VALID,916.535,VALID,0,VALID,100,VALID,0,VALID,19.0629,VALID,116,VALID,0.460243,
2005-05-27, 02:47:00,VALID,916.556,VALID,0,VALID,100,VALID,0.0169808,VALID,19.0299,VALID,114,VALID,0.298118,
2005-05-27, 02:48:00,VALID,916.571,VALID,0,VALID,100,VALID,0.0339617,VALID,19.0108,VALID,114,VALID,0.0964844,
2005-05-27, 02:49:00,VALID,916.585,VALID,0,VALID,100,VALID,0,VALID,18.9753,VALID,114,VALID,0.127858,
2005-05-27, 02:50:00,VALID,916.601,VALID,0,VALID,100,VALID,0.0169808,VALID,18.943,VALID,114,VALID,0,
2005-05-27, 02:51:00,VALID,916.602,VALID,0,VALID,100,VALID,0,VALID,18.9172,VALID,114,VALID,0,
2005-05-27, 02:52:00,VALID,916.615,VALID,0,VALID,100,VALID,0.0339617,VALID,18.9206,VALID,114,VALID,0,
2005-05-27, 02:53:00,VALID,916.597,VALID,0,VALID,100,VALID,-0.0169808,VALID,18.9045,VALID,114,VALID,0,
2005-05-27, 02:54:00,VALID,916.554,VALID,0,VALID,100,VALID,0,VALID,18.8883,VALID,114,VALID,0,
2005-05-27, 02:55:00,VALID,916.542,VALID,0,VALID,100,VALID,-0.0169808,VALID,18.8879,VALID,114,VALID,0.363104,
2005-05-27, 02:56:00,VALID,916.517,VALID,0,VALID,100,VALID,-0.0339617,VALID,18.9566,VALID,114,VALID,0.479802,
2005-05-27, 02:57:00,VALID,916.492,VALID,0,VALID,100,VALID,-0.0169808,VALID,19.0083,VALID,114,VALID,0.514291,
2005-05-27, 02:58:00,VALID,916.49,VALID,0,VALID,100,VALID,0,VALID,19.0175,VALID,114,VALID,0.508878,
2005-05-27, 02:59:00,VALID,916.48,VALID,0,VALID,100,VALID,0.0169808,VALID,18.9822,VALID,114,VALID,0.44029,
2005-05-27, 03:00:00,VALID,916.472,VALID,0,VALID,100,VALID,0,VALID,18.9653,VALID,114,VALID,0.324505,
2005-05-27, 03:01:00,VALID,916.46,VALID,0,VALID,100,VALID,0.0169808,VALID,18.9787,VALID,114,VALID,0.196243,
2005-05-27, 03:02:00,VALID,916.457,VALID,0,VALID,100,VALID,0,VALID,18.9921,VALID,114,VALID,0.171317,
2005-05-27, 03:03:00,VALID,916.455,VALID,0,VALID,100,VALID,-0.0169808,VALID,18.9728,VALID,114,VALID,0.00837054,
2005-05-27, 03:04:00,VALID,916.442,VALID,0,VALID,100,VALID,0,VALID,18.9601,VALID,114,VALID,0,
2005-05-27, 03:05:00,VALID,916.429,VALID,0,VALID,100,VALID,0,VALID,18.9566,VALID,114,VALID,0,
2005-05-27, 03:06:00,VALID,916.421,VALID,0,VALID,100,VALID,-0.0169808,VALID,18.9303,VALID,114,VALID,0,
2005-05-27, 03:07:00,VALID,916.417,VALID,0,VALID,100,VALID,-0.0169808,VALID,18.9462,VALID,114,VALID,0.0177557,
2005-05-27, 03:08:00,VALID,916.416,VALID,0,VALID,100,VALID,-0.0169808,VALID,18.9946,VALID,114,VALID,0.216257,
2005-05-27, 03:09:00,VALID,916.417,VALID,0,VALID,100,VALID,0,VALID,19.0406,VALID,114,VALID,0,
2005-05-27, 03:10:00,VALID,916.422,VALID,0,VALID,100,VALID,0,VALID,19.0468,VALID,114,VALID,0,
2005-05-27, 03:11:00,VALID,916.437,VALID,0,VALID,100,VALID,0,VALID,19.0468,VALID,114,VALID,0,
2005-05-27, 03:12:00,VALID,916.446,VALID,0,VALID,100,VALID,0,VALID,19.0465,VALID,114,VALID,0,
2005-05-27, 03:13:00,VALID,916.467,VALID,0,VALID,100,VALID,0,VALID,19.053,VALID,114,VALID,0,
2005-05-27, 03:14:00,VALID,916.463,VALID,0,VALID,100,VALID,0,VALID,19.0535,VALID,114,VALID,0,
2005-05-27, 03:15:00,VALID,916.479,VALID,0,VALID,100,VALID,0,VALID,19.0373,VALID,114,VALID,0.221657,
2005-05-27, 03:16:00,VALID,916.49,VALID,0,VALID,100,VALID,0,VALID,19.0272,VALID,149,VALID,0.52753,
2005-05-27, 03:17:00,VALID,916.487,VALID,0,VALID,100,VALID,0,VALID,19.0438,VALID,155,VALID,0.25343,
2005-05-27, 03:18:00,VALID,916.492,VALID,0,VALID,100,VALID,0,VALID,19.0145,VALID,155,VALID,0.165305,
2005-05-27, 03:19:00,VALID,916.49,VALID,0,VALID,100,VALID,0,VALID,18.9531,VALID,155,VALID,0.640807,
2005-05-27, 03:20:00,VALID,916.491,VALID,0,VALID,100,VALID,-0.0169808,VALID,18.8794,VALID,158,VALID,0.84266,
2005-05-27, 03:21:00,VALID,916.49,VALID,0,VALID,100,VALID,0,VALID,18.8044,VALID,164,VALID,0.918968,
2005-05-27, 03:22:00,VALID,916.486,VALID,0,VALID,100,VALID,0,VALID,18.785,VALID,163,VALID,0.973189,
2005-05-27, 03:23:00,VALID,916.493,VALID,0,VALID,100,VALID,0,VALID,18.795,VALID,155,VALID,0.639137,
2005-05-27, 03:24:00,VALID,916.493,VALID,0,VALID,100,VALID,0,VALID,18.824,VALID,150,VALID,0.422408,
2005-05-27, 03:25:00,VALID,916.493,VALID,0,VALID,100,VALID,0,VALID,18.8468,VALID,123,VALID,0.502096,
2005-05-27, 03:26:00,VALID,916.493,VALID,0,VALID,100,VALID,0,VALID,18.8406,VALID,102,VALID,0.770531,
2005-05-27, 03:27:00,VALID,916.479,VALID,0,VALID,100,VALID,0.0169808,VALID,18.8116,VALID,92,VALID,0.812678,
2005-05-27, 03:28:00,VALID,916.464,VALID,0,VALID,100,VALID,-0.0169808,VALID,18.7984,VALID,91,VALID,0.711868,
2005-05-27, 03:29:00,VALID,916.467,VALID,0,VALID,100,VALID,-0.0339617,VALID,18.7952,VALID,105,VALID,0.892078,
2005-05-27, 03:30:00,VALID,916.458,VALID,0,VALID,100,VALID,-0.0169808,VALID,18.8282,VALID,111,VALID,0.908067,
2005-05-27, 03:31:00,VALID,916.451,VALID,0,VALID,100,VALID,-0.0169808,VALID,18.8665,VALID,113,VALID,1.03582,
2005-05-27, 03:32:00,VALID,916.443,VALID,0,VALID,100,VALID,0,VALID,18.9146,VALID,107,VALID,0.955793,
2005-05-27, 03:33:00,VALID,916.431,VALID,0,VALID,100,VALID,-0.0169808,VALID,18.934,VALID,86,VALID,1.14158,
2005-05-27, 03:34:00,VALID,916.431,VALID,0,VALID,100,VALID,0,VALID,18.9439,VALID,90,VALID,0.714208,
2005-05-27, 03:35:00,VALID,916.42,VALID,0,VALID,100,VALID,0,VALID,18.9243,VALID,82,VALID,0.848958,
2005-05-27, 03:36:00,VALID,916.41,VALID,0,VALID,100,VALID,0.0169808,VALID,18.8916,VALID,71,VALID,0.819957,
2005-05-27, 03:37:00,VALID,916.42,VALID,0,VALID,100,VALID,0,VALID,18.8598,VALID,62,VALID,0.863814,
2005-05-27, 03:38:00,VALID,916.435,VALID,0,VALID,100,VALID,-0.0169808,VALID,18.8208,VALID,64,VALID,1.00469,
2005-05-27, 03:39:00,VALID,916.454,VALID,0,VALID,100,VALID,0,VALID,18.8183,VALID,76,VALID,0.985677,
2005-05-27, 03:40:00,VALID,916.477,VALID,0,VALID,100,VALID,0,VALID,18.8277,VALID,96,VALID,0.900724,
2005-05-27, 03:41:00,VALID,916.496,VALID,0,VALID,100,VALID,0,VALID,18.8335,VALID,106,VALID,1.0824,
2005-05-27, 03:42:00,VALID,916.529,VALID,0,VALID,100,VALID,0,VALID,18.86,VALID,115,VALID,1.43285,
2005-05-27, 03:43:00,VALID,916.551,VALID,0,VALID,100,VALID,0.0169808,VALID,18.8953,VALID,116,VALID,1.66704,
2005-05-27, 03:44:00,VALID,916.564,VALID,0,VALID,100,VALID,0,VALID,18.9342,VALID,113,VALID,1.27106,
2005-05-27, 03:45:00,VALID,916.588,VALID,0,VALID,100,VALID,0,VALID,18.9631,VALID,119,VALID,1.16946,